KF4VX-15 Weather Reports


time (UTC)temp
F
wind
direction
speed
knots
gust
knots
rain 1hr
in
rain 24hr
in
rain mn
in
humidity
%
barometer
mb
20260901114512 66 51 0.0 0.0 0.00 0.00 0.00 97 1019.0
20260901113012 65 51 0.0 0.0 0.00 0.00 0.00 97 1018.9
20260901111511 65 51 0.0 0.0 0.00 0.00 0.00 97 1018.8
20260901110015 65 51 0.0 0.0 0.00 0.00 0.00 97 1018.7
20260901104510 65 51 0.0 0.0 0.00 0.00 0.00 97 1018.7
20260901103016 66 51 0.0 0.0 0.00 0.00 0.00 97 1018.7
20260901101521 66 51 0.0 0.0 0.00 0.00 0.00 97 1018.5
20260901100008 66 51 0.0 0.0 0.00 0.00 0.00 97 1018.5
20260901094507 66 51 0.0 0.0 0.00 0.00 0.00 97 1018.4
20260901093005 66 51 0.0 0.0 0.00 0.00 0.00 96 1018.4
20260901091506 67 51 0.0 0.0 0.00 0.00 0.00 97 1018.2
20260901090010 66 51 0.0 0.0 0.00 0.00 0.00 97 1018.2
20260901084502 67 51 0.0 0.0 0.00 0.00 0.00 97 1018.2
20260901083002 67 51 0.0 0.0 0.00 0.00 0.00 97 1018.4
20260901081501 67 51 0.0 0.0 0.00 0.00 0.00 97 1018.3
20260901074603 67 51 0.0 0.0 0.00 0.00 0.00 96 1018.3
20260901073058 67 51 0.0 0.0 0.00 0.00 0.00 96 1018.4
20260901071557 67 51 0.0 0.0 0.00 0.00 0.00 96 1018.5
20260901070058 67 51 0.0 0.0 0.00 0.00 0.00 96 1018.6
20260901064554 68 51 0.0 0.0 0.00 0.00 0.00 96 1018.8
20260901063054 68 51 0.0 0.0 0.00 0.00 0.00 97 1018.7
20260901061553 68 51 0.0 0.0 0.00 0.00 0.00 95 1018.8
20260901060051 68 51 0.0 0.0 0.00 0.00 0.00 95 1018.8
20260901054550 68 51 0.0 0.0 0.00 0.00 0.00 95 1018.9
20260901053100 68 51 0.0 0.0 0.00 0.00 0.00 95 1018.9
20260901051550 68 51 0.0 0.0 0.00 0.00 0.00 95 1019.0
20260901050046 69 51 0.0 0.0 0.00 0.00 0.00 94 1019.1
20260901044559 69 51 0.0 0.0 0.00 0.00 0.00 95 1018.9
20260901043044 69 51 0.0 0.0 0.00 0.00 0.00 94 1018.8
20260901041542 69 51 0.0 0.0 0.00 0.00 0.00 94 1018.8
20260901040039 70 51 0.0 0.0 0.00 0.00 0.00 94 1018.7
20260901034537 69 51 0.0 0.0 0.00 0.00 0.00 94 1018.5
20260901033037 69 51 0.0 0.0 0.00 0.00 0.00 92 1018.6
20260901031537 70 51 0.0 0.0 0.00 0.00 0.00 92 1018.7
20260901030047 70 51 0.0 0.0 0.00 0.00 0.00 92 1018.7
20260901024538 71 51 0.0 0.0 0.00 0.00 0.00 92 1018.7
20260901023036 71 51 0.0 0.0 0.00 0.00 0.00 91 1018.6
20260901021535 71 51 0.0 0.0 0.00 0.00 0.00 91 1018.5
20260901020035 72 51 0.0 0.0 0.00 0.00 0.00 90 1018.4
20260901014540 72 51 0.0 0.0 0.00 0.00 0.00 90 1018.2
20260901013034 72 51 0.0 0.0 0.00 0.00 0.00 90 1018.2
20260901011533 73 51 0.0 0.0 0.00 0.00 0.00 90 1017.9
20260901010034 73 51 0.0 0.0 0.00 0.00 0.00 89 1017.6
20260901004537 74 51 0.0 0.0 0.00 0.00 0.00 88 1017.5
20260901003036 75 51 0.0 0.0 0.00 0.00 0.00 87 1017.5
20260901001532 75 51 0.0 0.0 0.00 0.00 0.00 84 1017.5
20260901000031 76 51 0.0 3.5 0.00 0.00 0.00 82 1017.5
20260831234531 76 51 0.0 2.6 0.00 0.00 0.00 81 1017.4
20260831233030 77 51 0.0 0.0 0.00 0.00 0.00 80 1017.6
20260831231529 78 51 0.0 0.0 0.00 0.00 0.00 77 1017.5
20260831230036 79 51 0.0 0.0 0.00 0.00 0.00 76 1017.5
20260831224528 78 51 0.0 0.9 0.00 0.00 0.00 78 1017.5
20260831223029 78 51 0.0 7.0 0.00 0.00 0.00 77 1017.7
20260831221534 79 51 0.9 8.7 0.00 0.00 0.00 75 1017.7
20260831220031 81 50 0.0 0.0 0.00 0.00 0.00 79 1017.6
20260831214544 81 50 0.0 0.0 0.00 0.00 0.00 77 1017.6
20260831213025 82 50 0.0 0.0 0.00 0.00 0.00 74 1017.7
20260831211525 85 50 0.0 3.5 0.00 0.00 0.00 67 1017.5
20260831210028 87 49 0.9 4.3 0.00 0.00 0.00 61 1017.4
20260831204523 88 49 0.0 0.0 0.00 0.00 0.00 50 1017.4
20260831203022 88 49 0.0 2.6 0.00 0.00 0.00 53 1017.5
20260831201529 87 49 0.0 0.9 0.00 0.00 0.00 51 1017.5
20260831200035 87 50 0.0 4.3 0.00 0.00 0.00 54 1017.8
20260831194518 87 50 0.0 0.0 0.00 0.00 0.00 55 1017.9
20260831193016 89 49 0.0 0.9 0.00 0.00 0.00 56 1018.0
20260831191515 89 49 0.0 0.0 0.00 0.00 0.00 56 1018.2
20260831190015 87 49 0.0 2.6 0.00 0.00 0.00 54 1018.3
20260831184517 87 50 0.0 0.9 0.00 0.00 0.00 52 1018.6
20260831183009 86 49 0.0 1.7 0.00 0.00 0.00 57 1018.7
20260831181508 85 49 0.0 3.5 0.00 0.00 0.00 57 1018.8
20260831180006 85 49 0.0 3.5 0.00 0.00 0.00 61 1018.9
20260831174505 86 50 0.0 4.3 0.00 0.00 0.00 63 1019.1
20260831173005 86 49 0.9 2.6 0.00 0.00 0.00 59 1019.2
20260831171502 86 49 0.0 0.0 0.00 0.00 0.00 65 1019.3
20260831170003 85 50 0.9 5.2 0.00 0.00 0.00 66 1019.3
20260831164607 85 50 0.0 0.0 0.00 0.00 0.00 66 1019.4
20260831163059 84 49 0.0 0.0 0.00 0.00 0.00 70 1019.5
20260831161557 84 50 0.0 0.0 0.00 0.00 0.00 68 1019.6
20260831160055 82 49 0.0 0.0 0.00 0.00 0.00 71 1019.8
20260831154606 82 50 0.0 0.0 0.00 0.00 0.00 73 1020.1
20260831153056 83 50 0.0 0.0 0.00 0.00 0.00 74 1020.1
20260831151553 81 50 0.0 0.0 0.00 0.00 0.00 77 1020.1
20260831150052 82 50 0.0 0.0 0.00 0.00 0.00 75 1020.2
20260831144552 83 50 0.0 0.0 0.00 0.00 0.00 76 1020.2
20260831143053 82 49 0.0 0.0 0.00 0.00 0.00 77 1020.1
20260831141544 80 50 0.0 0.0 0.00 0.00 0.00 79 1020.1
20260831140042 78 50 0.0 0.9 0.00 0.00 0.00 83 1019.9
20260831134541 78 50 0.0 0.9 0.00 0.00 0.00 82 1019.9
20260831133040 76 50 0.0 0.9 0.00 0.00 0.00 85 1020.0
20260831131542 75 49 0.0 0.9 0.00 0.00 0.00 88 1020.1
20260831130037 73 50 0.0 0.9 0.00 0.00 0.00 90 1020.1
20260831124531 71 50 0.0 0.0 0.00 0.00 0.00 93 1020.2
20260831123021 69 50 0.0 0.9 0.00 0.00 0.00 96 1020.1
20260831121520 68 50 0.0 0.9 0.00 0.00 0.00 97 1020.1
20260831120025 67 50 0.0 2.6 0.00 0.00 0.00 97 1020.2